When you browse on this site, cookies collect data to enhance your experience and personalize the content and advertising you see.
Visit our Privacy Policy to learn more. By continuing to use the site, you agree to this use of cookies and data.
  • In Latvia
  • List of Countries
  • For 7 days
  • Water Temperature
  • Weather Map
  • Weather Widgets
  • user-avatar
    Login

    Hourly Weather Albany

    Today, 1 April, Wednesday

    Time Temperature Precipitation Wind Pressure Humidity
    00:00 +16°C° 0 mm 0 mps 758 mmHg 82%
    01:00 +18°C° 0 mm 1 mps 758 mmHg 81%
    02:00 +18°C° 0 mm 1 mps 757 mmHg 84%
    03:00 +18°C° 0.1 mm 1 mps 758 mmHg 86%
    04:00 +16°C° 0.1 mm 1 mps 758 mmHg 88%
    05:00 +16°C° 0.1 mm 1 mps 758 mmHg 89%
    06:00 +18°C° 0 mm 1 mps 758 mmHg 85%
    07:00 +18°C° 0 mm 1 mps 757 mmHg 81%
    08:00 +20°C° 0 mm 1 mps 758 mmHg 76%
    09:00 +21°C° 0.1 mm 1 mps 757 mmHg 67%
    10:00 +23°C° 0.1 mm 1 mps 757 mmHg 58%
    11:00 +25°C° 0.1 mm 1 mps 757 mmHg 49%
    12:00 +24°C° 0.1 mm 2 mps 756 mmHg 52%
    13:00 +24°C° 0.1 mm 2 mps 756 mmHg 56%
    14:00 +22°C° 0 mm 3 mps 755 mmHg 60%
    15:00 +21°C° 0 mm 3 mps 754 mmHg 62%
    16:00 +21°C° 0 mm 2 mps 754 mmHg 65%
    17:00 +20°C° 0 mm 2 mps 754 mmHg 67%
    18:00 +19°C° 0 mm 2 mps 754 mmHg 71%
    19:00 +19°C° 0 mm 1 mps 755 mmHg 74%
    20:00 +18°C° 0 mm 1 mps 755 mmHg 78%
    21:00 +18°C° 0 mm 1 mps 755 mmHg 79%
    22:00 +18°C° 0 mm 1 mps 755 mmHg 80%
    23:00 +18°C° 0 mm 1 mps 755 mmHg 81%

    Tomorrow, 2 April, Thursday

    Time Temperature Precipitation Wind Pressure Humidity
    00:00 +16°C° 0 mm 1 mps 754 mmHg 81%
    01:00 +16°C° 0 mm 2 mps 754 mmHg 81%
    02:00 +16°C° 0 mm 2 mps 753 mmHg 82%
    03:00 +16°C° 0 mm 3 mps 753 mmHg 84%
    04:00 +15°C° 0 mm 4 mps 753 mmHg 87%
    05:00 +14°C° 0 mm 5 mps 753 mmHg 90%
    06:00 +15°C° 0 mm 5 mps 753 mmHg 84%
    07:00 +16°C° 0 mm 6 mps 753 mmHg 78%
    08:00 +17°C° 0 mm 6 mps 753 mmHg 72%
    09:00 +18°C° 0.1 mm 7 mps 753 mmHg 66%
    10:00 +21°C° 0.1 mm 8 mps 753 mmHg 59%
    11:00 +22°C° 0.1 mm 9 mps 754 mmHg 53%
    12:00 +21°C° 0.1 mm 9 mps 753 mmHg 57%
    13:00 +18°C° 0.1 mm 9 mps 753 mmHg 60%
    14:00 +17°C° 0.1 mm 8 mps 753 mmHg 64%
    15:00 +16°C° 0 mm 8 mps 754 mmHg 63%
    16:00 +16°C° 0 mm 8 mps 754 mmHg 61%
    17:00 +15°C° 0 mm 7 mps 755 mmHg 60%
    18:00 +15°C° 0 mm 7 mps 755 mmHg 61%
    19:00 +14°C° 0 mm 6 mps 756 mmHg 63%
    20:00 +14°C° 0 mm 6 mps 756 mmHg 65%
    21:00 +14°C° 0.1 mm 6 mps 757 mmHg 66%
    22:00 +14°C° 0.1 mm 6 mps 757 mmHg 67%
    23:00 +14°C° 0.1 mm 6 mps 758 mmHg 68%

    Day after tomorrow, 3 April, Friday

    Time Temperature Precipitation Wind Pressure Humidity
    00:00 +14°C° 0.1 mm 6 mps 758 mmHg 69%
    01:00 +13°C° 0.1 mm 6 mps 758 mmHg 70%
    02:00 +13°C° 0.1 mm 6 mps 758 mmHg 72%
    03:00 +12°C° 0 mm 5 mps 758 mmHg 71%
    04:00 +12°C° 0 mm 5 mps 759 mmHg 70%
    05:00 +12°C° 0 mm 4 mps 759 mmHg 69%
    06:00 +13°C° 0 mm 4 mps 760 mmHg 67%
    07:00 +13°C° 0 mm 4 mps 760 mmHg 65%
    08:00 +13°C° 0 mm 4 mps 760 mmHg 63%
    09:00 +14°C° 0 mm 4 mps 761 mmHg 60%
    10:00 +14°C° 0 mm 4 mps 761 mmHg 57%
    11:00 +15°C° 0 mm 4 mps 761 mmHg 54%
    12:00 +15°C° 0 mm 4 mps 761 mmHg 54%
    13:00 +15°C° 0 mm 4 mps 761 mmHg 55%
    14:00 +15°C° 0 mm 4 mps 761 mmHg 55%
    15:00 +16°C° 0 mm 3 mps 761 mmHg 57%
    16:00 +16°C° 0 mm 3 mps 761 mmHg 58%
    17:00 +14°C° 0 mm 3 mps 761 mmHg 60%
    18:00 +13°C° 0 mm 3 mps 762 mmHg 65%
    19:00 +13°C° 0 mm 2 mps 762 mmHg 71%
    20:00 +12°C° 0 mm 2 mps 762 mmHg 76%
    21:00 +12°C° 0 mm 2 mps 763 mmHg 75%
    22:00 +13°C° 0 mm 1 mps 763 mmHg 73%
    23:00 +13°C° 0 mm 1 mps 763 mmHg 72%

    4 April, Saturday

    Time Temperature Precipitation Wind Pressure Humidity
    00:00 +13°C° 0 mm 1 mps 763 mmHg 71%
    01:00 +13°C° 0 mm 1 mps 763 mmHg 70%
    02:00 +13°C° 0 mm 1 mps 763 mmHg 69%
    03:00 +13°C° 0 mm 1 mps 763 mmHg 69%
    04:00 +13°C° 0 mm 1 mps 763 mmHg 69%
    05:00 +13°C° 0 mm 1 mps 763 mmHg 68%
    06:00 +14°C° 0 mm 1 mps 763 mmHg 67%
    07:00 +14°C° 0 mm 1 mps 763 mmHg 65%
    08:00 +14°C° 0 mm 1 mps 764 mmHg 64%
    09:00 +15°C° 0 mm 1 mps 764 mmHg 61%
    10:00 +16°C° 0 mm 1 mps 764 mmHg 59%
    11:00 +18°C° 0 mm 1 mps 764 mmHg 56%
    12:00 +17°C° 0 mm 2 mps 763 mmHg 55%
    13:00 +17°C° 0 mm 2 mps 763 mmHg 55%
    14:00 +18°C° 0 mm 3 mps 762 mmHg 54%
    15:00 +17°C° 0 mm 3 mps 762 mmHg 56%
    16:00 +17°C° 0 mm 3 mps 762 mmHg 58%
    17:00 +15°C° 0 mm 4 mps 762 mmHg 60%
    18:00 +14°C° 0 mm 4 mps 762 mmHg 66%
    19:00 +13°C° 0 mm 3 mps 763 mmHg 71%
    20:00 +12°C° 0 mm 3 mps 764 mmHg 77%
    21:00 +12°C° 0 mm 3 mps 764 mmHg 78%
    22:00 +11°C° 0 mm 3 mps 764 mmHg 80%
    23:00 +12°C° 0 mm 2 mps 764 mmHg 81%

    5 April, Sunday

    Time Temperature Precipitation Wind Pressure Humidity
    00:00 +12°C° 0 mm 2 mps 764 mmHg 82%
    01:00 +12°C° 0 mm 2 mps 763 mmHg 84%
    02:00 +10°C° 0 mm 2 mps 763 mmHg 85%
    03:00 +10°C° 0 mm 2 mps 763 mmHg 85%
    04:00 +10°C° 0 mm 2 mps 763 mmHg 86%
    05:00 +10°C° 0 mm 2 mps 763 mmHg 87%
    06:00 +12°C° 0 mm 2 mps 763 mmHg 82%
    07:00 +13°C° 0 mm 2 mps 764 mmHg 77%
    08:00 +14°C° 0 mm 2 mps 764 mmHg 72%
    09:00 +16°C° 0 mm 3 mps 764 mmHg 66%
    10:00 +18°C° 0 mm 3 mps 764 mmHg 60%
    11:00 +19°C° 0 mm 4 mps 764 mmHg 55%
    12:00 +19°C° 0 mm 4 mps 763 mmHg 54%
    13:00 +20°C° 0 mm 5 mps 763 mmHg 54%
    14:00 +20°C° 0 mm 5 mps 763 mmHg 54%
    15:00 +19°C° 0 mm 5 mps 762 mmHg 57%
    16:00 +17°C° 0 mm 6 mps 762 mmHg 60%
    17:00 +17°C° 0 mm 6 mps 762 mmHg 63%
    18:00 +16°C° 0 mm 6 mps 763 mmHg 69%
    19:00 +15°C° 0 mm 5 mps 763 mmHg 75%
    20:00 +14°C° 0 mm 5 mps 763 mmHg 80%
    21:00 +13°C° 0 mm 5 mps 764 mmHg 82%
    22:00 +13°C° 0 mm 5 mps 764 mmHg 83%
    23:00 +13°C° 0 mm 5 mps 764 mmHg 85%

    6 April, Monday

    Time Temperature Precipitation Wind Pressure Humidity
    00:00 +13°C° 0 mm 5 mps 764 mmHg 87%
    01:00 +13°C° 0 mm 5 mps 764 mmHg 88%
    02:00 +13°C° 0 mm 5 mps 763 mmHg 90%
    03:00 +12°C° 0 mm 4 mps 763 mmHg 91%
    04:00 +12°C° 0 mm 4 mps 763 mmHg 91%
    05:00 +12°C° 0 mm 4 mps 763 mmHg 92%
    06:00 +13°C° 0 mm 4 mps 763 mmHg 87%
    07:00 +14°C° 0 mm 5 mps 763 mmHg 82%
    08:00 +16°C° 0 mm 5 mps 764 mmHg 77%
    09:00 +17°C° 0 mm 5 mps 763 mmHg 68%
    10:00 +20°C° 0 mm 5 mps 763 mmHg 60%
    11:00 +22°C° 0 mm 6 mps 763 mmHg 51%
    12:00 +22°C° 0 mm 6 mps 763 mmHg 49%
    13:00 +23°C° 0 mm 6 mps 762 mmHg 47%
    14:00 +24°C° 0 mm 6 mps 762 mmHg 45%
    15:00 +22°C° 0 mm 6 mps 761 mmHg 52%
    16:00 +21°C° 0 mm 7 mps 761 mmHg 60%
    17:00 +20°C° 0 mm 7 mps 761 mmHg 67%
    18:00 +18°C° 0 mm 7 mps 761 mmHg 73%
    19:00 +17°C° 0 mm 7 mps 762 mmHg 78%
    20:00 +16°C° 0 mm 6 mps 762 mmHg 84%
    21:00 +16°C° 0 mm 7 mps 762 mmHg 85%
    22:00 +16°C° 0 mm 7 mps 762 mmHg 86%
    23:00 +16°C° 0 mm 7 mps 763 mmHg 87%
    Show more